Total_Precipitation_Accumulation
0.26 0.24 0.18 0.15 0.13 0.11 0.10 0.09 0.08 0.09 0.10 0.09 0.11 0.11 0.12 0.11 0.09 0.10 0.09 0.11 0.12 0.11 0.12 0.20 0.37 0.69 0.99 1.07 1.14 1.06 0.96 0.90 0.78 0.64 0.62 0.74 0.83 0.81 0.76 0.82 0.76 0.61 0.55
0.31 0.27 0.23 0.18 0.15 0.13 0.09 0.07 0.05 0.04 0.04 0.04 0.04 0.05 0.08 0.08 0.08 0.11 0.12 0.14 0.14 0.12 0.11 0.13 0.21 0.41 0.74 0.99 1.16 1.34 1.19 1.06 1.02 0.84 0.65 0.64 0.74 0.80 0.81 0.81 0.85 0.77 0.63
0.41 0.33 0.26 0.22 0.19 0.16 0.13 0.10 0.07 0.04 0.02 0.02 0.02 0.01 0.02 0.03 0.05 0.08 0.10 0.13 0.17 0.15 0.13 0.12 0.14 0.23 0.41 0.69 0.97 1.30 1.49 1.28 1.20 1.15 0.93 0.69 0.67 0.74 0.80 0.86 0.89 0.93 0.81
0.42 0.43 0.35 0.26 0.19 0.20 0.20 0.18 0.14 0.08 0.03 0.02 0.01 0.01 0.01 0.01 0.01 0.03 0.05 0.08 0.14 0.17 0.15 0.15 0.15 0.16 0.24 0.42 0.67 1.02 1.61 1.60 1.43 1.38 1.36 1.06 0.79 0.74 0.76 0.84 0.91 0.95 1.02
0.44 0.46 0.44 0.36 0.26 0.22 0.20 0.19 0.16 0.11 0.06 0.03 0.02 0.01 0.01 0.00 0.00 0.01 0.01 0.03 0.06 0.13 0.17 0.18 0.18 0.17 0.18 0.24 0.42 0.74 1.37 1.75 1.76 1.72 1.70 1.55 1.18 0.91 0.82 0.83 0.91 0.98 1.07
0.45 0.44 0.46 0.43 0.34 0.26 0.21 0.19 0.17 0.13 0.09 0.05 0.03 0.02 0.01 0.00 0.00 0.00 0.00 0.01 0.02 0.05 0.11 0.15 0.18 0.18 0.16 0.17 0.23 0.40 0.81 1.29 1.59 1.78 1.84 1.92 1.75 1.29 1.00 0.91 0.92 1.03 1.10
0.48 0.44 0.41 0.41 0.40 0.33 0.23 0.18 0.19 0.17 0.12 0.09 0.07 0.04 0.01 0.00 0.00 0.00 0.00 0.00 0.01 0.01 0.04 0.09 0.15 0.20 0.19 0.17 0.17 0.20 0.36 0.74 1.14 1.43 1.61 1.81 2.07 1.88 1.41 1.12 1.02 1.07 1.19
0.47 0.46 0.40 0.36 0.35 0.34 0.29 0.20 0.16 0.17 0.14 0.09 0.11 0.14 0.07 0.01 0.00 0.00 0.00 0.00 0.00 0.01 0.02 0.04 0.08 0.15 0.20 0.20 0.14 0.13 0.18 0.37 0.75 1.17 1.43 1.62 1.90 2.19 2.00 1.52 1.26 1.21 1.29
0.48 0.46 0.40 0.34 0.31 0.29 0.27 0.22 0.16 0.14 0.14 0.08 0.07 0.22 0.31 0.18 0.06 0.01 0.00 0.01 0.01 0.01 0.01 0.02 0.05 0.08 0.14 0.21 0.19 0.13 0.11 0.18 0.40 0.79 1.26 1.58 1.80 2.12 2.31 2.07 1.64 1.41 1.41
0.50 0.46 0.42 0.34 0.31 0.28 0.24 0.21 0.19 0.16 0.17 0.15 0.08 0.09 0.20 0.26 0.29 0.14 0.02 0.02 0.03 0.03 0.02 0.02 0.03 0.05 0.08 0.15 0.21 0.21 0.16 0.15 0.24 0.50 0.91 1.47 1.88 2.14 2.49 2.46 2.15 1.76 1.58
0.52 0.49 0.45 0.39 0.32 0.29 0.26 0.21 0.18 0.17 0.18 0.20 0.17 0.14 0.11 0.11 0.16 0.26 0.12 0.03 0.04 0.04 0.04 0.03 0.03 0.04 0.05 0.10 0.15 0.20 0.24 0.25 0.33 0.45 0.69 1.15 1.87 2.23 2.65 2.87 2.57 2.09 1.77
0.54 0.50 0.46 0.41 0.35 0.31 0.27 0.24 0.20 0.18 0.17 0.16 0.17 0.17 0.20 0.21 0.17 0.22 0.21 0.08 0.03 0.03 0.04 0.04 0.05 0.07 0.09 0.10 0.12 0.21 0.28 0.33 0.43 0.48 0.52 0.80 1.38 2.07 2.52 2.88 2.78 2.31 1.93
0.56 0.48 0.44 0.39 0.34 0.31 0.30 0.29 0.25 0.20 0.17 0.17 0.16 0.16 0.17 0.18 0.18 0.24 0.29 0.18 0.09 0.04 0.02 0.03 0.05 0.08 0.11 0.13 0.14 0.20 0.24 0.30 0.37 0.42 0.42 0.51 0.82 1.40 2.10 2.65 2.97 2.74 2.25
0.48 0.42 0.39 0.37 0.33 0.30 0.30 0.32 0.32 0.28 0.22 0.20 0.17 0.17 0.20 0.17 0.20 0.27 0.33 0.37 0.30 0.10 0.03 0.02 0.02 0.04 0.09 0.14 0.14 0.16 0.15 0.21 0.28 0.32 0.36 0.40 0.54 0.86 1.40 2.05 2.81 3.29 2.99
0.44 0.42 0.39 0.37 0.34 0.32 0.32 0.33 0.34 0.31 0.27 0.24 0.22 0.22 0.25 0.22 0.22 0.23 0.27 0.38 0.56 0.42 0.11 0.02 0.02 0.04 0.08 0.14 0.14 0.13 0.12 0.15 0.20 0.25 0.30 0.34 0.42 0.60 0.92 1.40 1.98 2.89 3.48
0.41 0.41 0.40 0.39 0.36 0.34 0.33 0.34 0.34 0.31 0.30 0.28 0.28 0.28 0.26 0.25 0.27 0.29 0.32 0.33 0.42 0.53 0.32 0.05 0.04 0.05 0.10 0.17 0.19 0.15 0.14 0.17 0.18 0.20 0.21 0.24 0.30 0.42 0.65 0.97 1.38 1.96 2.85
0.39 0.36 0.36 0.37 0.39 0.37 0.34 0.36 0.34 0.33 0.34 0.31 0.28 0.30 0.29 0.30 0.38 0.41 0.44 0.43 0.39 0.44 0.45 0.13 0.04 0.06 0.14 0.23 0.23 0.17 0.16 0.15 0.13 0.15 0.17 0.21 0.25 0.34 0.50 0.72 0.98 1.34 1.97
0.43 0.33 0.31 0.33 0.38 0.39 0.36 0.38 0.37 0.34 0.36 0.35 0.33 0.34 0.36 0.37 0.42 0.47 0.54 0.55 0.48 0.43 0.49 0.33 0.12 0.10 0.17 0.27 0.30 0.24 0.20 0.17 0.12 0.13 0.17 0.22 0.28 0.34 0.44 0.58 0.76 1.01 1.37
0.62 0.46 0.34 0.33 0.39 0.44 0.40 0.37 0.41 0.42 0.39 0.37 0.37 0.42 0.45 0.47 0.46 0.48 0.59 0.65 0.60 0.53 0.54 0.51 0.28 0.15 0.17 0.27 0.37 0.34 0.28 0.25 0.19 0.16 0.17 0.20 0.25 0.32 0.39 0.48 0.63 0.80 0.99
0.64 0.57 0.44 0.37 0.42 0.52 0.51 0.51 0.54 0.50 0.44 0.37 0.33 0.36 0.46 0.59 0.64 0.69 0.71 0.70 0.73 0.74 0.69 0.64 0.46 0.29 0.25 0.30 0.45 0.50 0.42 0.35 0.30 0.24 0.21 0.20 0.23 0.29 0.34 0.37 0.42 0.54 0.73
0.51 0.52 0.50 0.42 0.44 0.64 0.84 0.98 0.89 0.63 0.47 0.38 0.30 0.30 0.40 0.63 0.82 1.02 1.08 0.97 0.97 1.04 0.97 0.90 0.76 0.58 0.44 0.44 0.53 0.56 0.61 0.51 0.45 0.36 0.27 0.21 0.22 0.21 0.22 0.28 0.33 0.39 0.52
0.48 0.44 0.44 0.43 0.42 0.63 0.96 1.16 0.85 0.51 0.40 0.36 0.34 0.30 0.37 0.59 0.75 0.87 1.00 1.01 1.06 1.21 1.27 1.20 1.05 0.85 0.61 0.50 0.53 0.65 0.78 0.83 0.70 0.51 0.40 0.32 0.29 0.27 0.22 0.21 0.27 0.33 0.44
0.47 0.43 0.40 0.39 0.36 0.47 0.81 1.03 0.78 0.46 0.36 0.34 0.33 0.31 0.34 0.46 0.59 0.65 0.70 0.73 0.78 0.94 1.17 1.29 1.24 0.93 0.74 0.61 0.71 0.83 0.84 0.93 0.83 0.75 0.73 0.63 0.42 0.35 0.28 0.29 0.34 0.34 0.42
0.43 0.40 0.39 0.37 0.34 0.38 0.69 0.96 0.76 0.47 0.38 0.35 0.36 0.33 0.28 0.33 0.46 0.63 0.70 0.65 0.60 0.69 0.95 1.17 1.34 1.15 0.95 0.92 1.08 1.24 1.25 1.20 1.03 0.96 0.96 1.02 0.71 0.50 0.40 0.36 0.36 0.34 0.38
0.43 0.37 0.35 0.37 0.34 0.32 0.57 0.95 0.82 0.48 0.38 0.35 0.36 0.34 0.27 0.26 0.43 0.61 0.61 0.56 0.49 0.55 0.68 0.90 1.05 1.07 1.06 1.17 1.39 1.70 1.78 1.68 1.41 1.15 1.06 1.08 1.02 0.88 0.77 0.62 0.51 0.43 0.39
0.43 0.40 0.35 0.35 0.35 0.30 0.43 0.85 0.93 0.53 0.41 0.35 0.34 0.33 0.35 0.37 0.47 0.54 0.51 0.53 0.60 0.55 0.51 0.54 0.57 0.60 0.66 0.77 1.10 1.52 1.76 1.79 1.56 1.46 1.28 1.14 1.20 1.23 1.38 1.10 0.79 0.56 0.44